Regional Weather Roundup
Issued by NWS

Home | Current Version | Previous Version | Graphics & Text | Print | Product List | Glossary Off
Versions: 1 2 3 4 5 6 7 8 9 10 11 12 13 14 15 16 17 18 19 20 21 22 23 24 25 26 27 28 29 30 31 32 33 34 35 36 37 38 39 40 41 42 43 44 45 46 47 48 49 50

000
ASUS43 KMKX 290511
RWRWI

WISCONSIN REGIONAL WEATHER ROUNDUP
NATIONAL WEATHER SERVICE MILWAUKEE/SULLIVAN WI
1200 AM CDT FRI JUL 29 2016

NOTE: "FAIR" INDICATES FEW OR NO CLOUDS BELOW 12,000 FEET WITH NO
SIGNIFICANT WEATHER AND/OR OBSTRUCTIONS TO VISIBILITY.

WIZ001-002-006>008-014>016-023>028-290600-
NORTHWEST WISCONSIN

CITY           SKY/WX    TMP DP  RH WIND       PRES   REMARKS
SUPERIOR ARPT  CLEAR     58  57  98 NE5       30.09S
ASHLAND        CLEAR     51  50  96 N3        30.09F FOG
HAYWARD        CLEAR     55  52  89 N5        30.09R
SIREN          CLEAR     55  54  94 CALM      30.08
CUMBERLAND     MOCLDY    59  52  77 NE5       30.08S
RICE LAKE      CLEAR     59  55  84 CALM      30.09R
CHETEK         PTCLDY    64  56  77 NE5       30.07R
LADYSMITH      CLOUDY    62  55  79 NE8       30.08F
EAU CLAIRE     CLOUDY    65  63  93 CALM      30.03S
MENOMONIE      CLOUDY    65  62  87 CALM      30.05R
NEW RICHMOND   MOCLDY    62  55  80 CALM      30.07R
OSCEOLA        CLEAR     62  55  76 CALM      30.09R
$$

WIZ003>005-009-010-017-018-290600-
NORTH CENTRAL WISCONSIN

CITY           SKY/WX    TMP DP  RH WIND       PRES   REMARKS
MANITOWISH WTR CLEAR     50  50 100 CALM      30.10S
ARBOR VITAE    CLEAR     55  53  93 CALM      30.09F
WOODRUFF       CLEAR     55  53  93 CALM      30.09F
RHINELANDER    CLEAR     56  52  86 NE3       30.09S
EAGLE RIVER    CLEAR     51  51 100 CALM      30.09F
LAND O LAKES   CLEAR     54  49  86 CALM      30.11S
PHILLIPS       CLEAR     56  54  92 NE3       30.09R
TOMAHAWK       CLEAR     57  51  79 CALM      30.09S
MEDFORD        CLOUDY    61  57  87 NE6       30.06S
MERRILL        CLOUDY    61  56  82 NE5       30.07S
$$

WIZ029-030-035-036-043>047-290600-
CENTRAL WISCONSIN

CITY           SKY/WX    TMP DP  RH WIND       PRES   REMARKS
WAUSAU         CLOUDY    64  58  80 NE3       30.04R
MOSINEE        CLOUDY    63  59  88 CALM      30.06R
MARSHFIELD     CLOUDY    65  61  87 N3        30.04R
STEVENS POINT  LGT RAIN  62  57  85 NE8       30.04R
WAUPACA        MOCLDY    67  62  82 NE5       30.02S
WAUTOMA        CLOUDY    65  61  87 NE8       30.01S
WISC RAPIDS    CLOUDY    66  60  81 NE6       30.04S
CAMP DOUGLAS   CLOUDY    65  61  86 NE5       30.01S
$$

WIZ011>013-019>022-031-037>040-048>050-290600-
NORTHEAST WISCONSIN

CITY           SKY/WX    TMP DP  RH WIND       PRES   REMARKS
ANTIGO         CLOUDY    60  53  77 NE10      30.07S
SHAWANO        CLOUDY    65  56  71 NE13      30.04S
OCONTO         CLOUDY    62  58  87 N6        30.02F
STURGEON BAY   CLOUDY    65  57  75 N7        30.03S
GREEN BAY      CLOUDY    64  57  78 N9        30.01S
MANITOWOC      CLOUDY    65  59  81 N8        30.00R
APPLETON       PTCLDY    64  54  68 NE15      29.99F
CLINTONVILLE   CLOUDY    64  54  68 NE10      30.03R
OSHKOSH        CLOUDY    68  60  75 NE10G20   29.99S
$$

WIZ032>034-041-042-053>061-290600-
SOUTHWEST WISCONSIN

CITY           SKY/WX    TMP DP  RH WIND       PRES   REMARKS
LA CROSSE      CLOUDY    65  62  90 NW6       30.00S
SPARTA         CLOUDY    63  61  95 NE7       30.02S
VIROQUA        CLOUDY    65  65 100 NE3       30.00S
BOSCOBEL       CLOUDY    71  65  81 NE6       29.96S
PRAIRIE DU CHI CLOUDY    67  66  96 CALM      29.96R
PLATTEVILLE    CLOUDY    69  68  97 E8        29.97R
$$

WIZ056-057-062-063-064-067-068-290600-
SOUTH CENTRAL WISCONSIN

CITY           SKY/WX    TMP DP  RH WIND       PRES   REMARKS
REEDSBURG      CLOUDY    67  61  81 NE6       29.98F
BARABOO/DELLS  CLOUDY    66  59  77 NE8       29.99S
LONE ROCK      CLOUDY    70  63  78 NE9       29.97S
MINERAL POINT  CLOUDY    68  66  94 NE6       29.97S
MADISON        CLOUDY    68  59  73 NE8       29.97S
MIDDLETON      CLOUDY    69  62  78 NE5       29.99R
WATERTOWN      CLOUDY    65  60  82 NE7       29.96F
MONROE         CLOUDY    66  64  94 NE6       29.96S
JANESVILLE     CLOUDY    68  64  88 NE3       29.95S
$$

WIZ051-052-058>065-066-070>072-290600-
SOUTHEAST WISCONSIN

CITY           SKY/WX    TMP DP  RH WIND       PRES   REMARKS
MILWAUKEE      LGT RAIN  68  63  84 N12       29.95S
WAUKESHA       CLOUDY    63  59  88 NE7       29.98S
MILWAUKEE/TIMM CLOUDY    66  59  77 N9        29.98S
RACINE         CLOUDY    67  63  87 N13       29.96S
BURLINGTON     CLOUDY    66  64  93 CALM      29.95S
KENOSHA        MOCLDY    67  65  93 VRB6      29.95S
FOND DU LAC    LGT RAIN  66  61  84 MISG      30.00R
SHEBOYGAN      CLOUDY    64  62  93 NE12      29.99S
WEST BEND      CLOUDY    64  59  82 NE5       29.99R
JUNEAU         MOCLDY    63  60  91 NE7       29.99F
$$

LSZ147-162-290600-
LAKE SUPERIOR

STATION/POSITION TIME  TEMP    WIND        PRES    WAVE
                       AIR SEA DIR/SP/G            HT/PER
                 (UTC) (F)     (DEG/KT/KT) (MB)    (FT/S)
W MID LAKE BUOY  0450   61 60  360/  6/  6 1018.8S   1/ 3
DEVILS ISLAND    0500   62      30/  7/  8 1019.1F
PORT WING        0400   56      CALM  /  2 1019.0F
SAXON HARBOR     0440   55     200/  4/  6 1018.3F
$$

LMZ867-665-643>646-290600-
LAKE MICHIGAN

STATION/POSITION TIME  TEMP    WIND        PRES    WAVE
                       AIR SEA DIR/SP/G            HT/PER
                 (UTC) (F)     (DEG/KT/KT) (MB)    (FT/S)
CHAMBERS ISLAND  0400   66      10/ 15/ 19 1016.9R
N MID LAKE BUOY  0450   67 69   10/ 17/ 19 1015.6R   3/ 5
NORTHPORT PIER   0400   66      20/ 10/ 16 1016.6R
SISTER BAY       0421   65      20/  7/ 12   N/A
ALGOMA LAKESHORE 0413          360/  6/  8   N/A
KEWAUNEE LAKESHO 0400   66      10/  5/  7 1015.7
SHEBOYGAN LAKESH 0500   64      20/ 19/ 25 1015.5S
PORT WASHINGTON  0400   68      20/  7/ 12 1015.2
ATWATER BUOY     0500   63 62  350/ 14/ 16 1016.0
MILWAUKEE LAKESH 0410   66     360/ 14/ 16   N/A
S MID LAKE BUOY  0450   74 75   70/  8/ 10 1012.9R   2/ 6
KENOSHA   LAKESH 0500   68     350/ 12/ 13 1013.5S
$$

TC  - TEMPERATURE IN CELSIUS
VSB - VISIBILITY IN STATUTE MILES
WCI - WIND CHILL INDEX
HX  - HEAT INDEX




USA.gov is the U.S. government's official web portal to all federal, state and local government web resources and services.